K6PKL-2 Weather Reports


Display with metric or nautical units.
time (UTC)temp
F
wind
direction
speed
MPH
gust
MPH
rain 1hr
in
rain 24hr
in
rain mn
in
humidity
%
barometer
mb
20260902152525 62 0 0.0 1.0 0.00 0.00 0.00 69 1022.1
20260902152125 62 130 0.0 3.0 0.00 0.00 0.00 69 1022.1
20260902151725 62 90 0.0 3.0 0.00 0.00 0.00 69 1022.1
20260902151325 62 29 2.0 4.0 0.00 0.00 0.00 69 1022.0
20260902150525 61 45 1.0 7.0 0.00 0.00 0.00 70 1022.1
20260902150124 61 47 3.0 4.0 0.00 0.00 0.00 69 1022.1
20260902145726 61 0 1.0 1.0 0.00 0.00 0.00 69 1022.1
20260902144924 61 31 2.0 3.0 0.00 0.00 0.00 68 1022.1
20260902144524 61 45 1.0 3.0 0.00 0.00 0.00 69 1022.0
20260902144423 61 45 0.0 4.0 0.00 0.00 0.00 69 1022.0
20260902144124 61 45 2.0 2.0 0.00 0.00 0.00 69 1021.9
20260902143724 61 45 0.0 4.0 0.00 0.00 0.00 69 1022.0
20260902143323 61 63 2.0 3.0 0.00 0.00 0.00 69 1022.1
20260902143113 61 45 1.0 4.0 0.00 0.00 0.00 69 1022.1
20260902142923 61 45 1.0 4.0 0.00 0.00 0.00 69 1022.1
20260902142808 61 27 2.0 2.0 0.00 0.00 0.00 68 1022.0
20260902142523 61 27 2.0 2.0 0.00 0.00 0.00 68 1022.0
20260902142123 61 40 1.0 2.0 0.00 0.00 0.00 68 1022.0
20260902141723 61 38 1.0 3.0 0.00 0.00 0.00 68 1021.9
20260902141342 60 45 1.0 1.0 0.00 0.00 0.00 69 1021.8
20260902141323 61 45 2.0 2.0 0.00 0.00 0.00 69 1021.9
20260902140922 61 45 0.0 2.0 0.00 0.00 0.00 69 1021.9
20260902140522 60 45 1.0 1.0 0.00 0.00 0.00 69 1021.8
20260902140122 60 45 1.0 1.0 0.00 0.00 0.00 69 1021.8
20260902135323 60 49 1.0 1.0 0.00 0.00 0.00 68 1021.6
20260902135321 60 45 0.0 1.0 0.00 0.00 0.00 69 1021.6
20260902134922 60 45 0.0 1.0 0.00 0.00 0.00 69 1021.6
20260902134522 60 45 1.0 1.0 0.00 0.00 0.00 68 1021.4
20260902134122 60 45 0.0 0.0 0.00 0.00 0.00 68 1021.5
20260902133721 60 45 0.0 1.0 0.00 0.00 0.00 69 1021.4
20260902133321 60 27 0.0 0.0 0.00 0.00 0.00 68 1021.3
20260902132921 60 0 0.0 0.0 0.00 0.00 0.00 68 1021.4
20260902132521 60 135 0.0 0.0 0.00 0.00 0.00 68 1021.4
20260902132121 60 135 0.0 0.0 0.00 0.00 0.00 68 1021.4
20260902131721 60 135 0.0 0.0 0.00 0.00 0.00 68 1021.3
20260902131321 60 135 0.0 0.0 0.00 0.00 0.00 68 1021.3
20260902130920 60 135 0.0 0.0 0.00 0.00 0.00 68 1021.3
20260902130520 60 135 0.0 0.0 0.00 0.00 0.00 68 1021.3
20260902130120 60 135 0.0 0.0 0.00 0.00 0.00 68 1021.2
20260902125720 61 45 0.0 0.0 0.00 0.00 0.00 68 1021.1
20260902125320 61 45 0.0 0.0 0.00 0.00 0.00 67 1021.1
20260902124920 61 45 0.0 0.0 0.00 0.00 0.00 67 1021.1
20260902124520 61 45 0.0 0.0 0.00 0.00 0.00 67 1021.2
20260902124119 61 45 0.0 1.0 0.00 0.00 0.00 68 1021.1
20260902123719 61 90 0.0 0.0 0.00 0.00 0.00 67 1021.2
20260902123319 61 90 0.0 0.0 0.00 0.00 0.00 67 1021.2
20260902122920 61 90 0.0 0.0 0.00 0.00 0.00 67 1021.2
20260902122520 61 135 0.0 0.0 0.00 0.00 0.00 67 1021.1
20260902122120 61 135 0.0 0.0 0.00 0.00 0.00 67 1021.0
20260902121719 61 135 0.0 0.0 0.00 0.00 0.00 67 1021.0
20260902121318 61 135 0.0 0.0 0.00 0.00 0.00 67 1021.0
20260902120918 61 135 0.0 0.0 0.00 0.00 0.00 67 1021.0
20260902120518 61 135 0.0 0.0 0.00 0.00 0.00 67 1021.0
20260902120119 61 135 0.0 0.0 0.00 0.00 0.00 67 1020.9
20260902115718 61 135 0.0 0.0 0.00 0.00 0.00 67 1020.9
20260902115318 61 90 0.0 0.0 0.00 0.00 0.00 67 1021.0
20260902114918 61 90 0.0 0.0 0.00 0.00 0.00 67 1021.0
20260902114517 61 90 0.0 0.0 0.00 0.00 0.00 67 1021.0
20260902114117 61 90 0.0 0.0 0.00 0.00 0.00 67 1021.2
20260902113717 61 90 0.0 0.0 0.00 0.00 0.00 67 1021.2
20260902113317 61 90 0.0 0.0 0.00 0.00 0.00 66 1021.3
20260902112917 61 90 0.0 0.0 0.00 0.00 0.00 66 1021.3
20260902112117 61 45 0.0 0.0 0.00 0.00 0.00 66 1021.3
20260902111716 61 45 0.0 0.0 0.00 0.00 0.00 66 1021.4
20260902111316 62 45 0.0 0.0 0.00 0.00 0.00 66 1021.4
20260902110916 62 45 0.0 0.0 0.00 0.00 0.00 66 1021.4
20260902110517 62 45 0.0 0.0 0.00 0.00 0.00 66 1021.3
20260902110116 62 45 0.0 0.0 0.00 0.00 0.00 66 1021.4
20260902105716 62 45 0.0 0.0 0.00 0.00 0.00 66 1021.4
20260902105316 62 180 0.0 0.0 0.00 0.00 0.00 66 1021.4
20260902104916 62 180 0.0 0.0 0.00 0.00 0.00 66 1021.5
20260902104515 62 180 0.0 0.0 0.00 0.00 0.00 66 1021.6
20260902104115 62 180 0.0 0.0 0.00 0.00 0.00 66 1021.6
20260902103715 62 180 0.0 0.0 0.00 0.00 0.00 66 1021.7
20260902103315 62 180 0.0 0.0 0.00 0.00 0.00 66 1021.7
20260902102915 62 45 0.0 0.0 0.00 0.00 0.00 65 1021.6
20260902102515 62 112 0.0 0.0 0.00 0.00 0.00 66 1021.5
20260902101714 62 45 0.0 0.0 0.00 0.00 0.00 66 1021.5
20260902101314 62 45 0.0 0.0 0.00 0.00 0.00 66 1021.5
20260902100914 62 45 0.0 0.0 0.00 0.00 0.00 66 1021.5
20260902100514 62 45 0.0 0.0 0.00 0.00 0.00 66 1021.6
20260902095714 62 45 0.0 0.0 0.00 0.00 0.00 66 1021.5
20260902094910 63 45 1.0 1.0 0.00 0.00 0.00 66 1021.6
20260902094510 63 0 0.0 0.0 0.00 0.00 0.00 66 1021.6
20260902094110 63 0 0.0 0.0 0.00 0.00 0.00 66 1021.6
20260902093710 63 45 0.0 1.0 0.00 0.00 0.00 66 1021.5
20260902093310 63 45 1.0 2.0 0.00 0.00 0.00 66 1021.5
20260902092910 63 0 0.0 0.0 0.00 0.00 0.00 66 1021.6
20260902092109 63 315 0.0 2.0 0.00 0.00 0.00 66 1021.6
20260902091710 63 45 1.0 1.0 0.00 0.00 0.00 65 1021.5
20260902091309 63 45 0.0 0.0 0.00 0.00 0.00 65 1021.6
20260902091039 63 90 0.0 0.0 0.00 0.00 0.00 65 1021.5
20260902090909 63 90 0.0 0.0 0.00 0.00 0.00 65 1021.5
20260902090509 63 90 0.0 0.0 0.00 0.00 0.00 65 1021.5
20260902090109 63 90 0.0 0.0 0.00 0.00 0.00 65 1021.6
20260902085708 63 45 0.0 0.0 0.00 0.00 0.00 65 1021.5
20260902085308 63 45 0.0 0.0 0.00 0.00 0.00 65 1021.5
20260902084908 64 45 0.0 0.0 0.00 0.00 0.00 65 1021.5
20260902084508 64 45 1.0 1.0 0.00 0.00 0.00 65 1021.5
20260902084108 64 45 0.0 0.0 0.00 0.00 0.00 65 1021.5
20260902083305 64 45 1.0 2.0 0.00 0.00 0.00 64 1021.4
20260902082905 64 45 1.0 3.0 0.00 0.00 0.00 65 1021.5
20260902082504 64 36 1.0 2.0 0.00 0.00 0.00 65 1021.5
20260902082104 64 45 0.0 0.0 0.00 0.00 0.00 65 1021.5
20260902081704 64 67 1.0 2.0 0.00 0.00 0.00 64 1021.4
20260902081304 64 76 2.0 3.0 0.00 0.00 0.00 65 1021.4
20260902080904 64 45 2.0 2.0 0.00 0.00 0.00 65 1021.5
20260902080504 64 0 0.0 2.0 0.00 0.00 0.00 64 1021.4
20260902080103 64 45 0.0 3.0 0.00 0.00 0.00 65 1021.4
20260902075703 64 0 1.0 2.0 0.00 0.00 0.00 65 1021.5
20260902075306 65 0 2.0 2.0 0.00 0.00 0.00 65 1021.5
20260902074903 65 9 1.0 2.0 0.00 0.00 0.00 65 1021.4
20260902074503 65 45 1.0 2.0 0.00 0.00 0.00 65 1021.4
20260902074103 65 60 1.0 3.0 0.00 0.00 0.00 65 1021.4
20260902073703 65 54 3.0 3.0 0.00 0.00 0.00 65 1021.4
20260902073302 65 45 0.0 0.0 0.00 0.00 0.00 65 1021.4
20260902072902 65 45 0.0 0.0 0.00 0.00 0.00 65 1021.5
20260902072502 65 45 0.0 1.0 0.00 0.00 0.00 65 1021.3
20260902072102 65 45 1.0 3.0 0.00 0.00 0.00 65 1021.3
20260902070902 65 45 0.0 1.0 0.00 0.00 0.00 66 1021.3
20260902070501 65 45 1.0 2.0 0.00 0.00 0.00 66 1021.3
20260902065701 65 42 3.0 3.0 0.00 0.00 0.00 66 1021.4
20260902065301 65 45 0.0 1.0 0.00 0.00 0.00 67 1021.4
20260902064901 65 42 1.0 2.0 0.00 0.00 0.00 67 1021.3
20260902064501 65 315 0.0 2.0 0.00 0.00 0.00 67 1021.3
20260902064101 65 180 1.0 2.0 0.00 0.00 0.00 67 1021.3
20260902063700 65 198 1.0 4.0 0.00 0.00 0.00 67 1021.2
20260902063300 65 220 3.0 5.0 0.00 0.00 0.00 67 1021.3
20260902062900 65 225 2.0 2.0 0.00 0.00 0.00 66 1021.3
20260902062500 65 0 0.0 2.0 0.00 0.00 0.00 67 1021.3
20260902062101 65 315 2.0 3.0 0.00 0.00 0.00 67 1021.4
20260902061300 65 0 1.0 2.0 0.00 0.00 0.00 67 1021.4
20260902060859 66 0 2.0 2.0 0.00 0.00 0.00 67 1021.5
20260902060459 66 245 1.0 3.0 0.00 0.00 0.00 66 1021.5
20260902060059 66 260 1.0 3.0 0.00 0.00 0.00 67 1021.5
20260902055659 66 0 1.0 3.0 0.00 0.00 0.00 66 1021.5
20260902055259 66 288 1.0 4.0 0.00 0.00 0.00 67 1021.6
20260902054459 66 225 1.0 4.0 0.00 0.00 0.00 65 1021.5
20260902054059 66 217 3.0 5.0 0.00 0.00 0.00 65 1021.6
20260902053658 66 233 2.0 6.0 0.00 0.00 0.00 65 1021.7
20260902053258 66 220 4.0 6.0 0.00 0.00 0.00 64 1021.6
20260902052455 67 245 5.0 7.0 0.00 0.00 0.00 64 1021.7
20260902052055 67 225 3.0 5.0 0.00 0.00 0.00 63 1021.7
20260902051655 67 265 3.0 7.0 0.00 0.00 0.00 63 1021.7
20260902051254 67 306 3.0 7.0 0.00 0.00 0.00 62 1021.7
20260902050854 67 229 3.0 5.0 0.00 0.00 0.00 62 1021.7
20260902050454 67 300 1.0 6.0 0.00 0.00 0.00 62 1021.7
20260902050054 67 315 2.0 6.0 0.00 0.00 0.00 62 1021.7
20260902045654 67 249 3.0 5.0 0.00 0.00 0.00 62 1021.6
20260902045254 67 165 3.0 6.0 0.00 0.00 0.00 61 1021.6
20260902045206 69 202 3.0 4.0 0.00 0.00 0.00 54 1021.1
20260902044454 68 225 4.0 5.0 0.00 0.00 0.00 60 1021.7
20260902044054 68 225 5.0 8.0 0.00 0.00 0.00 60 1021.6
20260902043654 68 261 4.0 5.0 0.00 0.00 0.00 59 1021.6
20260902043254 68 205 4.0 7.0 0.00 0.00 0.00 58 1021.6
20260902042854 68 225 1.0 5.0 0.00 0.00 0.00 58 1021.5
20260902042454 68 238 5.0 6.0 0.00 0.00 0.00 58 1021.5
20260902042053 68 225 3.0 7.0 0.00 0.00 0.00 58 1021.5
20260902041653 69 265 4.0 8.0 0.00 0.00 0.00 57 1021.4
20260902041253 69 240 5.0 8.0 0.00 0.00 0.00 58 1021.4
20260902040853 69 229 8.0 8.0 0.00 0.00 0.00 57 1021.3
20260902040453 69 225 4.0 6.0 0.00 0.00 0.00 56 1021.3
20260902040053 69 300 2.0 7.0 0.00 0.00 0.00 55 1021.2
20260902035653 69 202 3.0 4.0 0.00 0.00 0.00 54 1021.1
20260902034852 70 99 1.0 7.0 0.00 0.00 0.00 54 1020.9
20260902034052 70 227 4.0 13.0 0.00 0.00 0.00 53 1020.9
20260902033651 70 351 1.0 7.0 0.00 0.00 0.00 52 1020.8
20260902032851 70 281 4.0 8.0 0.00 0.00 0.00 51 1020.6
20260902032451 71 234 5.0 5.0 0.00 0.00 0.00 51 1020.6
20260902032051 71 225 4.0 7.0 0.00 0.00 0.00 51 1020.5
20260902031650 71 209 2.0 8.0 0.00 0.00 0.00 51 1020.4
20260902031250 71 238 4.0 7.0 0.00 0.00 0.00 51 1020.3
20260902030450 72 236 6.0 12.0 0.00 0.00 0.00 49 1020.2
20260902030050 72 215 6.0 9.0 0.00 0.00 0.00 49 1020.3
20260902025650 72 220 9.0 9.0 0.00 0.00 0.00 49 1020.1
20260902024849 73 237 5.0 7.0 0.00 0.00 0.00 49 1020.0
20260902024449 73 247 3.0 7.0 0.00 0.00 0.00 48 1020.0
20260902024049 74 249 5.0 6.0 0.00 0.00 0.00 47 1019.9
20260902023649 74 225 2.0 7.0 0.00 0.00 0.00 47 1019.8
20260902023249 75 225 4.0 9.0 0.00 0.00 0.00 46 1019.9
20260902022849 75 250 5.0 7.0 0.00 0.00 0.00 46 1019.8
20260902022449 76 220 4.0 14.0 0.00 0.00 0.00 45 1019.7
20260902022048 76 216 9.0 14.0 0.00 0.00 0.00 46 1019.7
20260902021648 76 225 8.0 9.0 0.00 0.00 0.00 45 1019.6
20260902021249 77 312 3.0 7.0 0.00 0.00 0.00 44 1019.5
20260902020848 77 240 6.0 8.0 0.00 0.00 0.00 44 1019.5
20260902020448 78 205 4.0 9.0 0.00 0.00 0.00 44 1019.6
20260902020048 78 207 5.0 7.0 0.00 0.00 0.00 43 1019.5
20260902015648 79 220 7.0 7.0 0.00 0.00 0.00 43 1019.4
20260902015247 79 193 2.0 6.0 0.00 0.00 0.00 43 1019.4
20260902014847 80 238 6.0 7.0 0.00 0.00 0.00 42 1019.5
20260902014447 80 229 7.0 7.0 0.00 0.00 0.00 42 1019.4
20260902014047 80 232 6.0 9.0 0.00 0.00 0.00 42 1019.2
20260902013647 80 287 3.0 7.0 0.00 0.00 0.00 42 1019.2
20260902012844 80 186 4.0 7.0 0.00 0.00 0.00 42 1019.2
20260902012443 80 213 2.0 7.0 0.00 0.00 0.00 43 1019.1
20260902012043 80 324 4.0 7.0 0.00 0.00 0.00 43 1019.2
20260902011243 80 221 4.0 9.0 0.00 0.00 0.00 43 1019.1
20260902010843 80 292 4.0 8.0 0.00 0.00 0.00 43 1019.0
20260902010443 80 315 5.0 12.0 0.00 0.00 0.00 44 1019.0
20260902010043 80 310 3.0 7.0 0.00 0.00 0.00 44 1019.0
20260902005642 80 355 5.0 6.0 0.00 0.00 0.00 43 1019.0
20260902005242 80 220 8.0 10.0 0.00 0.00 0.00 42 1018.9
20260902004842 80 308 5.0 17.0 0.00 0.00 0.00 42 1018.8
20260902004442 80 317 4.0 5.0 0.00 0.00 0.00 43 1018.7
20260902004042 80 265 6.0 11.0 0.00 0.00 0.00 43 1018.8
20260902003242 80 265 2.0 8.0 0.00 0.00 0.00 43 1018.9
20260902002441 79 225 6.0 7.0 0.00 0.00 0.00 42 1019.0
20260902002041 79 194 2.0 7.0 0.00 0.00 0.00 42 1018.8
20260902001641 79 333 3.0 3.0 0.00 0.00 0.00 43 1018.9
20260902001241 79 335 2.0 6.0 0.00 0.00 0.00 43 1018.9
20260902000841 79 335 5.0 6.0 0.00 0.00 0.00 43 1018.8
20260902000441 79 207 3.0 6.0 0.00 0.00 0.00 44 1018.8
20260902000040 79 270 0.0 8.0 0.00 0.00 0.00 44 1018.9
20260901235640 79 195 3.0 6.0 0.00 0.00 0.00 43 1019.0
20260901235240 79 2 3.0 4.0 0.00 0.00 0.00 43 1018.9
20260901234840 79 193 3.0 7.0 0.00 0.00 0.00 44 1019.0
20260901234440 79 341 2.0 6.0 0.00 0.00 0.00 44 1019.0
20260901234040 79 292 3.0 6.0 0.00 0.00 0.00 44 1019.0
20260901233640 79 312 2.0 7.0 0.00 0.00 0.00 44 1019.1
20260901233241 79 185 1.0 6.0 0.00 0.00 0.00 44 1019.1
20260901232839 79 270 1.0 6.0 0.00 0.00 0.00 44 1019.2
20260901232439 79 195 7.0 8.0 0.00 0.00 0.00 44 1019.3
20260901232039 79 317 2.0 6.0 0.00 0.00 0.00 45 1019.2
20260901231639 78 238 1.0 6.0 0.00 0.00 0.00 45 1019.2
20260901231239 78 22 2.0 7.0 0.00 0.00 0.00 45 1019.2
20260901230839 78 335 3.0 4.0 0.00 0.00 0.00 45 1019.2
20260901230439 78 263 4.0 7.0 0.00 0.00 0.00 45 1019.3
20260901225638 78 22 2.0 6.0 0.00 0.00 0.00 46 1019.4
20260901225238 78 187 1.0 7.0 0.00 0.00 0.00 46 1019.4
20260901224838 78 348 5.0 8.0 0.00 0.00 0.00 46 1019.3
20260901224439 77 315 3.0 7.0 0.00 0.00 0.00 45 1019.5
20260901224038 77 197 4.0 7.0 0.00 0.00 0.00 46 1019.4
20260901223638 77 225 1.0 8.0 0.00 0.00 0.00 47 1019.5
20260901223237 77 346 4.0 6.0 0.00 0.00 0.00 46 1019.5
20260901222837 77 257 4.0 6.0 0.00 0.00 0.00 47 1019.6
20260901222437 77 257 3.0 7.0 0.00 0.00 0.00 46 1019.6
20260901222037 77 216 7.0 7.0 0.00 0.00 0.00 47 1019.6
20260901221637 77 319 2.0 7.0 0.00 0.00 0.00 47 1019.6
20260901221237 77 299 1.0 8.0 0.00 0.00 0.00 47 1019.7
20260901220437 77 243 4.0 7.0 0.00 0.00 0.00 47 1019.8
20260901220036 77 315 4.0 9.0 0.00 0.00 0.00 47 1019.7
20260901215637 78 220 6.0 8.0 0.00 0.00 0.00 47 1019.7
20260901215236 78 211 7.0 8.0 0.00 0.00 0.00 47 1019.8
20260901214836 78 200 3.0 4.0 0.00 0.00 0.00 47 1019.9
20260901214436 78 18 4.0 4.0 0.00 0.00 0.00 47 1019.8
20260901214036 78 225 2.0 11.0 0.00 0.00 0.00 47 1019.7
20260901213635 78 263 3.0 6.0 0.00 0.00 0.00 47 1019.8
20260901213235 77 238 2.0 4.0 0.00 0.00 0.00 48 1019.8
20260901212835 77 180 1.0 2.0 0.00 0.00 0.00 48 1019.8
20260901212032 77 234 6.0 6.0 0.00 0.00 0.00 49 1019.8
20260901211632 77 240 4.0 10.0 0.00 0.00 0.00 48 1019.9
20260901211232 77 231 3.0 7.0 0.00 0.00 0.00 49 1019.9
20260901210831 76 324 5.0 6.0 0.00 0.00 0.00 48 1019.9
20260901210432 76 335 2.0 5.0 0.00 0.00 0.00 50 1019.9
20260901210031 76 213 4.0 8.0 0.00 0.00 0.00 49 1020.0
20260901205631 76 230 4.0 8.0 0.00 0.00 0.00 50 1020.0
20260901205231 76 193 0.0 6.0 0.00 0.00 0.00 51 1020.0
20260901204831 76 213 2.0 6.0 0.00 0.00 0.00 50 1020.1
20260901204431 75 200 6.0 8.0 0.00 0.00 0.00 51 1020.1
20260901203630 75 236 4.0 6.0 0.00 0.00 0.00 53 1020.2
20260901203230 75 210 5.0 7.0 0.00 0.00 0.00 54 1020.2
20260901202830 74 270 1.0 5.0 0.00 0.00 0.00 55 1020.2
20260901202430 74 215 0.0 5.0 0.00 0.00 0.00 54 1020.3
20260901202030 74 225 0.0 4.0 0.00 0.00 0.00 55 1020.3
20260901201630 74 135 2.0 3.0 0.00 0.00 0.00 55 1020.4
20260901201230 73 60 0.0 1.0 0.00 0.00 0.00 55 1020.4
20260901200830 73 243 1.0 3.0 0.00 0.00 0.00 54 1020.4
20260901200429 73 45 2.0 4.0 0.00 0.00 0.00 55 1020.5
20260901200029 73 225 0.0 5.0 0.00 0.00 0.00 54 1020.5
20260901195629 72 225 3.0 5.0 0.00 0.00 0.00 54 1020.6
20260901195229 72 292 1.0 8.0 0.00 0.00 0.00 54 1020.6
20260901194829 72 301 2.0 9.0 0.00 0.00 0.00 54 1020.6
20260901194429 72 211 3.0 7.0 0.00 0.00 0.00 55 1020.6
20260901194028 72 258 3.0 5.0 0.00 0.00 0.00 55 1020.5
20260901193628 72 292 3.0 5.0 0.00 0.00 0.00 55 1020.6
20260901193228 71 270 2.0 4.0 0.00 0.00 0.00 56 1020.7
20260901192828 71 315 2.0 3.0 0.00 0.00 0.00 57 1020.9
20260901192428 71 0 1.0 6.0 0.00 0.00 0.00 58 1020.9
20260901191628 71 270 2.0 12.0 0.00 0.00 0.00 58 1021.0
20260901191227 70 240 1.0 5.0 0.00 0.00 0.00 60 1020.9
20260901190827 70 315 2.0 3.0 0.00 0.00 0.00 61 1021.0
20260901190427 70 270 0.0 6.0 0.00 0.00 0.00 61 1021.0
20260901190027 70 225 1.0 6.0 0.00 0.00 0.00 61 1021.1
20260901185628 70 238 1.0 8.0 0.00 0.00 0.00 60 1021.1
20260901184827 69 270 2.0 7.0 0.00 0.00 0.00 62 1021.2
20260901184427 69 317 4.0 5.0 0.00 0.00 0.00 62 1021.2
20260901184027 69 215 3.0 6.0 0.00 0.00 0.00 62 1021.2
20260901183626 68 2 2.0 5.0 0.00 0.00 0.00 63 1021.2
20260901183227 68 202 4.0 8.0 0.00 0.00 0.00 64 1021.2
20260901182826 68 225 1.0 5.0 0.00 0.00 0.00 64 1021.2
20260901182427 67 301 0.0 3.0 0.00 0.00 0.00 65 1021.2
20260901182026 67 225 1.0 5.0 0.00 0.00 0.00 66 1021.1
20260901181625 67 270 1.0 4.0 0.00 0.00 0.00 66 1021.2
20260901181225 67 180 0.0 2.0 0.00 0.00 0.00 66 1021.3
20260901180825 66 193 2.0 6.0 0.00 0.00 0.00 67 1021.3
20260901180025 66 234 2.0 8.0 0.00 0.00 0.00 68 1021.4
20260901175625 66 270 1.0 6.0 0.00 0.00 0.00 68 1021.4
20260901175225 65 216 2.0 6.0 0.00 0.00 0.00 68 1021.3
20260901174824 65 193 2.0 4.0 0.00 0.00 0.00 68 1021.3
20260901174424 65 270 2.0 3.0 0.00 0.00 0.00 69 1021.3
20260901173624 65 225 0.0 2.0 0.00 0.00 0.00 70 1021.2
20260901173224 64 225 2.0 4.0 0.00 0.00 0.00 70 1021.2
20260901172824 64 238 0.0 5.0 0.00 0.00 0.00 70 1021.2
20260901172424 64 195 1.0 4.0 0.00 0.00 0.00 70 1021.2
20260901172023 64 292 1.0 2.0 0.00 0.00 0.00 70 1021.2
20260901171623 64 202 4.0 5.0 0.00 0.00 0.00 70 1021.2
20260901171223 63 199 2.0 3.0 0.00 0.00 0.00 71 1021.2
20260901170823 63 102 0.0 3.0 0.00 0.00 0.00 71 1021.2
20260901170423 63 225 0.0 3.0 0.00 0.00 0.00 71 1021.3
20260901170023 63 270 0.0 2.0 0.00 0.00 0.00 72 1021.2
20260901165623 63 231 2.0 3.0 0.00 0.00 0.00 72 1021.3
20260901165222 62 270 2.0 3.0 0.00 0.00 0.00 73 1021.3
20260901164822 62 265 1.0 4.0 0.00 0.00 0.00 73 1021.2
20260901164422 62 270 2.0 3.0 0.00 0.00 0.00 73 1021.2
20260901164022 62 209 1.0 3.0 0.00 0.00 0.00 73 1021.2
20260901163622 62 292 0.0 2.0 0.00 0.00 0.00 73 1021.1
20260901163222 62 45 2.0 2.0 0.00 0.00 0.00 73 1021.2
20260901162822 62 45 0.0 2.0 0.00 0.00 0.00 74 1021.2
20260901162421 61 270 0.0 3.0 0.00 0.00 0.00 74 1021.0
20260901162021 61 225 1.0 1.0 0.00 0.00 0.00 74 1020.9
20260901161621 61 225 1.0 3.0 0.00 0.00 0.00 74 1020.9
20260901161221 61 315 0.0 3.0 0.00 0.00 0.00 74 1020.8
20260901160822 61 90 0.0 2.0 0.00 0.00 0.00 74 1020.9
20260901160421 61 315 0.0 1.0 0.00 0.00 0.00 74 1021.0
20260901160021 61 225 1.0 3.0 0.00 0.00 0.00 73 1020.8
20260901155620 60 270 0.0 0.0 0.00 0.00 0.00 74 1020.9
20260901155220 60 315 0.0 2.0 0.00 0.00 0.00 74 1020.8
20260901154420 60 315 1.0 1.0 0.00 0.00 0.00 73 1020.6
20260901153620 60 225 0.0 1.0 0.00 0.00 0.00 73 1020.7
20260901153220 60 0 0.0 1.0 0.00 0.00 0.00 73 1020.7
20260901152819 60 90 0.0 0.0 0.00 0.00 0.00 73 1020.6